User: anonymous   Login
Location: Caltech
(34.1382°N, 118.1253°W)
Time: 04:52:55
(UTC-08:00)
Language:

COSMOS 2428 - Orbit

View from above orbital plane
View from above orbital plane
View from above satellite
View from above satellite

Ground track
Ground track

The orbit data is extracted from the following two-line orbital elements,

1 31792U 07029A   16044.10925105  .00000137  00000-0  10000-3 0  9993
2 31792  70.9554   0.4962 0010625 296.3033 192.5442 14.12433041444872
Epoch (UTC): 13 February 2016 02:37:19
Eccentricity: 0.0010625
inclination: 70.9554°
perigee height: 843 km
apogee height: 859 km
right ascension of ascending node: 0.4962°
argument of perigee: 296.3033°
revolutions per day: 14.12433041
mean anomaly at epoch: 192.5442°
orbit number at epoch: 44487

The dashed part of the orbit path shows where the satellite is in the earth's shadow,  

DLR